+ View the NASA Portal
+ Center for Near-Earth Object Studies
IMPORTANT:
The SSD Announcement email list is now available. Major changes are coming in the near future, including possible hostname and/or URL changes. To be notified of such changes, subscribe to this email list.
Please visit
this page
for more details.
Don't show this message again
JPL Small-Body Database Browser
Search:
[
help
]
266197 (2006 VX168)
Classification:
Main-belt Asteroid
SPK-ID:
2266197
[
Ephemeris
|
Orbit Diagram
|
Orbital Elements
|
Mission Design
|
Physical Parameters
|
Discovery Circumstances
|
Close-Approach Data
]
[ show orbit diagram ]
Orbital Elements at Epoch 2458600.5 (2019-Apr-27.0) TDB
Reference:
JPL 13
(heliocentric ecliptic J2000)
Element
Value
Uncertainty (1-sigma)
Units
e
.1424302884899268
1.1182e-07
a
2.575813386910248
3.1492e-08
au
q
2.208939543116406
3.0893e-07
au
i
.9789709009787044
9.0245e-06
deg
node
166.6906918807882
0.00042059
deg
peri
275.1029165821101
0.00042914
deg
M
355.8066796905267
8.2397e-05
deg
t
p
2458618.088368560311
(2019-May-14.58836856)
0.00034587
TDB
period
1509.975917510391
4.13
2.7691e-05
7.581e-08
d
yr
n
.2384143984187236
4.3723e-09
deg/d
Q
2.94268723070409
3.5977e-08
au
Orbit Determination Parameters
# obs. used (total)
222
data-arc span
7307 days (20.01 yr)
first obs. used
1999-01-22
last obs. used
2019-01-24
planetary ephem.
DE431
SB-pert. ephem.
SB431-N16
condition code
0
norm. resid. RMS
.60799
source
ORB
producer
Otto Matic
solution date
2019-Jul-14 09:27:14
Additional Information
Earth MOID
= 1.22499 au
Jupiter MOID
= 2.27582 au
T_jup
= 3.413
[ show covariance matrix ]
[
Ephemeris
|
Orbit Diagram
|
Orbital Elements
|
Mission Design
|
Physical Parameters
|
Discovery Circumstances
|
Close-Approach Data
]
Physical Parameter Table
Parameter
Symbol
Value
Units
Sigma
Reference
Notes
absolute magnitude
H
17.0
n/a
MPO454979
266197 (2006 VX168)
Discovered 2006-Nov-11 by Spacewatch at Kitt Peak
Reference:
20110218/Numbers.arc
Last Updated:
2011-02-22
[ show close-approach data ]
[
Ephemeris
|
Orbit Diagram
|
Orbital Elements
|
Mission Design
|
Physical Parameters
|
Discovery Circumstances
|
Close-Approach Data
]
2019-Dec-11 17:22 UT
(server date/time)
Site Manager:
Ryan S. Park
Webmaster
:
Alan B. Chamberlin